timestamp,wind_dir_avg,wind_spd_max_dir,wind_spd_avg,wind_spd_gust,battery_voltage,lat,long
2018-03-24 00:00:00+00:00,240.0,239.0,5.51,6.7,,47.59359,-54.27349
2018-03-24 00:10:00+00:00,239.0,247.0,5.82,6.76,,47.59359,-54.27349
2018-03-24 00:20:00+00:00,236.0,237.0,6.02,7.35,,47.59359,-54.27349
2018-03-24 00:30:00+00:00,239.0,239.0,5.76,6.83,,47.59359,-54.27349
2018-03-24 00:40:00+00:00,239.0,239.0,5.57,6.4,,47.59359,-54.27349
2018-03-24 00:50:00+00:00,243.0,245.0,5.51,6.64,,47.59359,-54.27349
2018-03-24 01:00:00+00:00,247.0,244.0,5.16,6.19,,47.59359,-54.27349
2018-03-24 01:10:00+00:00,240.0,244.0,5.77,6.38,,47.59359,-54.27349
2018-03-24 01:20:00+00:00,248.0,248.0,4.73,5.33,,47.59359,-54.27349
2018-03-24 01:30:00+00:00,243.0,238.0,4.63,5.28,,47.59359,-54.27349
2018-03-24 01:40:00+00:00,246.0,248.0,4.15,5.39,,47.59359,-54.27349
2018-03-24 01:50:00+00:00,240.0,236.0,5.1,5.71,,47.59359,-54.27349
2018-03-24 02:00:00+00:00,253.0,251.0,4.31,5.04,,47.59359,-54.27349
2018-03-24 02:10:00+00:00,258.0,263.0,3.44,3.77,,47.59359,-54.27349
2018-03-24 02:20:00+00:00,255.0,258.0,4.09,4.7,,47.59359,-54.27349
2018-03-24 02:30:00+00:00,249.0,256.0,4.24,5.62,,47.59359,-54.27349
2018-03-24 02:40:00+00:00,240.0,233.0,3.6,4.45,,47.59359,-54.27349
2018-03-24 02:50:00+00:00,240.0,239.0,4.39,5.27,,47.59359,-54.27349
2018-03-24 03:00:00+00:00,238.0,241.0,5.34,6.21,,47.59359,-54.27349
2018-03-24 03:10:00+00:00,239.0,244.0,4.7,5.54,,47.59359,-54.27349
2018-03-24 03:20:00+00:00,244.0,243.0,5.17,6.06,,47.59359,-54.27349
2018-03-24 03:30:00+00:00,241.0,254.0,4.8,5.88,,47.59359,-54.27349
2018-03-24 03:40:00+00:00,238.0,238.0,5.21,6.05,,47.59359,-54.27349
2018-03-24 03:50:00+00:00,245.0,244.0,4.81,5.5,,47.59359,-54.27349
2018-03-24 04:00:00+00:00,255.0,259.0,4.68,5.36,,47.59359,-54.27349
2018-03-24 04:10:00+00:00,319.0,313.0,3.89,4.23,,47.59359,-54.27349
2018-03-24 04:20:00+00:00,305.0,302.0,2.9,3.66,,47.59359,-54.27349
2018-03-24 04:30:00+00:00,290.0,288.0,3.01,3.67,,47.59359,-54.27349
2018-03-24 04:40:00+00:00,301.0,302.0,3.1,3.69,,47.59359,-54.27349
2018-03-24 04:50:00+00:00,325.0,324.0,4.21,4.69,,47.59359,-54.27349
2018-03-24 05:00:00+00:00,336.0,338.0,5.37,6.05,,47.59359,-54.27349
2018-03-24 05:10:00+00:00,341.0,341.0,5.07,5.58,,47.59359,-54.27349
2018-03-24 05:20:00+00:00,343.0,352.0,4.14,4.84,,47.59359,-54.27349
2018-03-24 05:30:00+00:00,341.0,337.0,4.73,5.31,,47.59359,-54.27349
2018-03-24 05:40:00+00:00,344.0,342.0,5.16,5.68,,47.59359,-54.27349
2018-03-24 05:50:00+00:00,346.0,349.0,4.13,5.53,,47.59359,-54.27349
2018-03-24 06:00:00+00:00,335.0,340.0,3.73,4.88,,47.59359,-54.27349
2018-03-24 06:10:00+00:00,340.0,334.0,4.15,4.87,,47.59359,-54.27349
2018-03-24 06:20:00+00:00,342.0,347.0,3.79,4.72,,47.59359,-54.27349
2018-03-24 06:30:00+00:00,337.0,333.0,2.9,3.64,,47.59359,-54.27349
2018-03-24 06:40:00+00:00,349.0,354.0,3.84,4.46,,47.59359,-54.27349
2018-03-24 06:50:00+00:00,355.0,358.0,2.95,3.69,,47.59359,-54.27349
2018-03-24 07:00:00+00:00,335.0,334.0,3.59,4.0,,47.59359,-54.27349
2018-03-24 07:10:00+00:00,345.0,343.0,4.18,4.53,,47.59359,-54.27349
2018-03-24 07:20:00+00:00,350.0,352.0,5.1,5.94,,47.59359,-54.27349
2018-03-24 07:30:00+00:00,352.0,357.0,3.76,4.24,,47.59359,-54.27349
2018-03-24 07:40:00+00:00,349.0,350.0,2.25,2.61,,47.59359,-54.27349
2018-03-24 07:50:00+00:00,336.0,343.0,2.63,2.91,,47.59359,-54.27349
2018-03-24 08:00:00+00:00,307.0,307.0,2.37,2.75,,47.59359,-54.27349
2018-03-24 08:10:00+00:00,272.0,271.0,1.39,1.65,,47.59359,-54.27349
2018-03-24 08:20:00+00:00,337.0,337.0,2.15,2.36,,47.59359,-54.27349
2018-03-24 08:30:00+00:00,327.0,328.0,2.43,2.67,,47.59359,-54.27349
2018-03-24 08:40:00+00:00,298.0,291.0,1.67,2.17,,47.59359,-54.27349
2018-03-24 08:50:00+00:00,315.0,311.0,1.69,2.21,,47.59359,-54.27349
2018-03-24 09:00:00+00:00,310.0,310.0,1.25,1.51,,47.59359,-54.27349
2018-03-24 09:10:00+00:00,350.0,355.0,1.56,1.76,,47.59359,-54.27349
2018-03-24 09:20:00+00:00,343.0,344.0,2.1,2.39,,47.59359,-54.27349
2018-03-24 09:30:00+00:00,14.0,14.0,2.79,3.08,,47.59359,-54.27349
2018-03-24 09:40:00+00:00,43.0,47.0,2.77,3.4,,47.59359,-54.27349
2018-03-24 09:50:00+00:00,57.0,47.0,1.85,2.15,,47.59359,-54.27349
2018-03-24 10:00:00+00:00,55.0,55.0,1.25,1.44,,47.59359,-54.27349
2018-03-24 10:10:00+00:00,5.0,6.0,1.67,1.82,,47.59359,-54.27349
2018-03-24 10:20:00+00:00,13.0,14.0,1.96,2.18,,47.59359,-54.27349
2018-03-24 10:30:00+00:00,328.0,330.0,1.63,1.85,,47.59359,-54.27349
2018-03-24 10:40:00+00:00,326.0,324.0,2.19,2.37,,47.59359,-54.27349
2018-03-24 10:50:00+00:00,323.0,323.0,2.17,2.34,,47.59359,-54.27349
2018-03-24 11:00:00+00:00,322.0,318.0,3.0,3.33,,47.59359,-54.27349
2018-03-24 11:10:00+00:00,339.0,341.0,2.16,2.39,,47.59359,-54.27349
2018-03-24 11:20:00+00:00,350.0,357.0,2.45,3.2,,47.59359,-54.27349
2018-03-24 11:30:00+00:00,4.0,4.0,2.76,3.01,,47.59359,-54.27349
2018-03-24 11:40:00+00:00,17.0,23.0,3.51,4.4,,47.59359,-54.27349
2018-03-24 11:50:00+00:00,26.0,34.0,3.69,4.8,,47.59359,-54.27349
2018-03-24 12:00:00+00:00,40.0,46.0,4.53,5.29,,47.59359,-54.27349
2018-03-24 12:10:00+00:00,58.0,59.0,5.74,6.46,,47.59359,-54.27349
2018-03-24 12:20:00+00:00,57.0,57.0,4.57,5.05,,47.59359,-54.27349
2018-03-24 12:30:00+00:00,46.0,49.0,4.81,5.71,,47.59359,-54.27349
2018-03-24 12:40:00+00:00,57.0,58.0,6.84,7.44,,47.59359,-54.27349
2018-03-24 12:50:00+00:00,57.0,56.0,7.93,8.7,,47.59359,-54.27349
2018-03-24 13:00:00+00:00,48.0,47.0,8.85,10.24,,47.59359,-54.27349
2018-03-24 13:10:00+00:00,56.0,53.0,8.19,9.57,,47.59359,-54.27349
2018-03-24 13:20:00+00:00,55.0,57.0,8.91,10.4,,47.59359,-54.27349
2018-03-24 13:30:00+00:00,54.0,54.0,9.39,11.14,,47.59359,-54.27349
2018-03-24 13:40:00+00:00,52.0,58.0,10.12,11.49,,47.59359,-54.27349
2018-03-24 13:50:00+00:00,53.0,57.0,10.83,14.43,,47.59359,-54.27349
2018-03-24 14:00:00+00:00,54.0,55.0,11.2,14.26,,47.59359,-54.27349
2018-03-24 14:10:00+00:00,53.0,54.0,10.11,12.24,,47.59359,-54.27349
2018-03-24 14:20:00+00:00,54.0,54.0,10.12,11.18,,47.59359,-54.27349
2018-03-24 14:30:00+00:00,54.0,53.0,10.0,11.48,,47.59359,-54.27349
2018-03-24 14:40:00+00:00,53.0,46.0,8.94,9.95,,47.59359,-54.27349
2018-03-24 14:50:00+00:00,54.0,58.0,9.27,12.07,,47.59359,-54.27349
2018-03-24 15:00:00+00:00,56.0,57.0,9.78,10.57,,47.59359,-54.27349
2018-03-24 15:10:00+00:00,54.0,54.0,9.46,10.5,,47.59359,-54.27349
2018-03-24 15:20:00+00:00,55.0,57.0,10.93,14.16,,47.59359,-54.27349
2018-03-24 15:30:00+00:00,53.0,59.0,10.63,12.31,,47.59359,-54.27349
2018-03-24 15:40:00+00:00,54.0,51.0,9.36,10.75,,47.59359,-54.27349
2018-03-24 15:50:00+00:00,55.0,54.0,10.26,11.37,,47.59359,-54.27349
2018-03-24 16:00:00+00:00,57.0,61.0,10.46,13.26,,47.59359,-54.27349
2018-03-24 16:10:00+00:00,58.0,55.0,8.8,9.86,,47.59359,-54.27349
2018-03-24 16:20:00+00:00,62.0,72.0,10.41,14.85,,47.59359,-54.27349
2018-03-24 16:30:00+00:00,61.0,65.0,9.77,11.14,,47.59359,-54.27349
2018-03-24 16:40:00+00:00,57.0,60.0,13.04,15.89,,47.59359,-54.27349
2018-03-24 16:50:00+00:00,59.0,64.0,13.81,16.65,,47.59359,-54.27349
2018-03-24 17:00:00+00:00,56.0,59.0,13.04,15.99,,47.59359,-54.27349
2018-03-24 17:10:00+00:00,55.0,58.0,14.97,18.61,,47.59359,-54.27349
2018-03-24 17:20:00+00:00,57.0,58.0,14.08,16.23,,47.59359,-54.27349
2018-03-24 17:30:00+00:00,54.0,58.0,14.27,17.63,,47.59359,-54.27349
2018-03-24 17:40:00+00:00,58.0,61.0,13.12,16.5,,47.59359,-54.27349
2018-03-24 17:50:00+00:00,55.0,56.0,14.04,16.53,,47.59359,-54.27349
2018-03-24 18:00:00+00:00,58.0,58.0,13.86,16.87,,47.59359,-54.27349
2018-03-24 18:10:00+00:00,57.0,59.0,16.41,18.18,,47.59359,-54.27349
2018-03-24 18:20:00+00:00,56.0,56.0,16.35,19.49,,47.59359,-54.27349
2018-03-24 18:30:00+00:00,57.0,55.0,15.81,18.49,,47.59359,-54.27349
2018-03-24 18:40:00+00:00,59.0,57.0,15.68,18.23,,47.59359,-54.27349
2018-03-24 18:50:00+00:00,58.0,60.0,16.51,17.84,,47.59359,-54.27349
2018-03-24 19:00:00+00:00,58.0,60.0,15.48,17.78,,47.59359,-54.27349
2018-03-24 19:10:00+00:00,56.0,56.0,15.79,18.84,,47.59359,-54.27349
2018-03-24 19:20:00+00:00,60.0,54.0,16.53,19.38,,47.59359,-54.27349
2018-03-24 19:30:00+00:00,59.0,56.0,16.98,18.49,,47.59359,-54.27349
2018-03-24 19:40:00+00:00,56.0,57.0,13.34,17.23,,47.59359,-54.27349
2018-03-24 19:50:00+00:00,59.0,65.0,16.12,20.69,,47.59359,-54.27349
2018-03-24 20:00:00+00:00,59.0,56.0,15.87,18.16,,47.59359,-54.27349
2018-03-24 20:10:00+00:00,59.0,57.0,16.75,18.91,,47.59359,-54.27349
2018-03-24 20:20:00+00:00,60.0,59.0,16.07,18.12,,47.59359,-54.27349
2018-03-24 20:30:00+00:00,58.0,55.0,16.91,19.05,,47.59359,-54.27349
2018-03-24 20:40:00+00:00,60.0,70.0,15.41,21.47,,47.59359,-54.27349
2018-03-24 20:50:00+00:00,57.0,54.0,17.47,19.33,,47.59359,-54.27349
2018-03-24 21:00:00+00:00,57.0,53.0,17.06,19.33,,47.59359,-54.27349
2018-03-24 21:10:00+00:00,55.0,52.0,17.87,20.06,,47.59359,-54.27349
2018-03-24 21:20:00+00:00,59.0,59.0,16.31,18.11,,47.59359,-54.27349
2018-03-24 21:30:00+00:00,58.0,53.0,17.63,19.8,,47.59359,-54.27349
2018-03-24 21:40:00+00:00,58.0,67.0,18.55,21.94,,47.59359,-54.27349
2018-03-24 21:50:00+00:00,55.0,52.0,18.19,20.31,,47.59359,-54.27349
2018-03-24 22:00:00+00:00,55.0,54.0,18.16,20.17,,47.59359,-54.27349
2018-03-24 22:10:00+00:00,54.0,55.0,18.87,21.81,,47.59359,-54.27349
2018-03-24 22:20:00+00:00,52.0,43.0,19.29,22.49,,47.59359,-54.27349
2018-03-24 22:30:00+00:00,53.0,53.0,16.9,19.31,,47.59359,-54.27349
2018-03-24 22:40:00+00:00,52.0,52.0,18.74,21.0,,47.59359,-54.27349
2018-03-24 22:50:00+00:00,52.0,53.0,16.16,19.21,,47.59359,-54.27349
2018-03-24 23:00:00+00:00,55.0,54.0,18.29,20.4,,47.59359,-54.27349
2018-03-24 23:10:00+00:00,55.0,56.0,16.82,20.16,,47.59359,-54.27349
2018-03-24 23:20:00+00:00,53.0,54.0,18.5,21.8,,47.59359,-54.27349
2018-03-24 23:30:00+00:00,54.0,53.0,18.33,21.61,,47.59359,-54.27349
2018-03-24 23:40:00+00:00,56.0,53.0,18.53,21.43,,47.59359,-54.27349
2018-03-24 23:50:00+00:00,52.0,51.0,19.19,20.69,,47.59359,-54.27349
